Regional Weather Roundup
Issued by NWS

Home | Current Version | Previous Version | Graphics & Text | Print | Product List | Glossary On
Versions: 1 2 3 4 5 6 7 8 9 10 11 12 13 14 15 16 17 18 19 20 21 22 23 24 25 26 27 28 29 30 31 32 33 34 35 36 37 38 39 40 41 42 43 44 45 46 47 48 49 50
000
ASUS45 KCYS 221110
RWRWY

WYOMING REGIONAL WEATHER ROUNDUP
NATIONAL WEATHER SERVICE CHEYENNE WY
500 AM MDT TUE JUL 22 2014

NOTE:  "FAIR" INDICATES FEW OR NO CLOUDS BELOW 12,000 FEET
WITH NO SIGNIFICANT WEATHER AND/OR OBSTRUCTIONS TO VISIBILITY.

WYZ001-221200-
YELLOWSTONE NATIONAL PARK

CITY           SKY/WX    TMP DP  RH WIND       PRES   REMARKS
LK YELLOWSTONE   N/A     41  40  96 NW3       30.44R
W YELLOWSTONE  NOT AVBL

$$
WYZ002>013-054>058-071-098>099-221200-
NORTHERN WYOMING

CITY           SKY/WX    TMP DP  RH WIND       PRES   REMARKS
JACKSON        MOCLDY    48  46  93 N6        30.35S
CODY           CLOUDY    64  39  39 CALM      30.22F
GREYBULL       PTCLDY    63  51  65 CALM      30.17S
WORLAND        MOCLDY    62  46  55 SE8       30.18S
SHERIDAN       PTCLDY    54  52  93 CALM      30.18R
BUFFALO        MOCLDY    65  47  52 W7        30.25R
GILLETTE       PTCLDY    62  56  80 S5        30.21R
HULETT         FAIR      59  52  77 MISG      30.23
NEWCASTLE      NOT AVBL

$$
WYZ014>020-022>026-101>103-221200-
CENTRAL WYOMING

CITY           SKY/WX    TMP DP  RH WIND       PRES   REMARKS
BIG PINEY      CLEAR     47  38  71 NW8       30.40R
PINEDALE       SUNNY     43  41  93 W5        30.41R
DUBOIS         NOT AVBL
LANDER         CLEAR     60  40  47 VRB3      30.28R
RIVERTON       PTCLDY    56  39  53 NW5       30.28S
CASPER         CLEAR     55  50  83 NW6       30.27R
DOUGLAS        PTCLDY    61  52  72 S6        30.27S

$$
WYZ021-027>030-104>119-221200-
SOUTHERN WYOMING

CITY           SKY/WX    TMP DP  RH WIND       PRES   REMARKS
EVANSTON       CLEAR     55  34  45 SE7       30.38S
FORT BRIDGER   FAIR      55  36  49 S9        30.41S
ROCK SPRINGS   CLEAR     61  33  35 SE8       30.37S
RAWLINS        CLEAR     53  40  61 CALM      30.37R
LARAMIE        CLEAR     49  38  65 W3        30.40R
CHEYENNE       CLEAR     63  46  54 NW10      30.30R
TORRINGTON     CLEAR     65  59  81 NE6       30.19R
PINE BLUFFS    FAIR      63  46  55 CALM      30.24R

$$


USA.gov is the U.S. government's official web portal to all federal, state and local government web resources and services.